Location: ???? ??
(36.0534°N, 43.5630°E)
Time: 05:39:33
(UTC+00:00)

Lacrosse 4 Rocket - Pass Details

Date: 18 September 2019
Orbit: 544 x 615 km, 68.0° (Epoch: 20 October)

Event Time Altitude Azimuth Distance (km) Brightness Sun altitude
Rises 16:13:41 0° 313° (NW) 2,711 5.9 -13.7°
Reaches altitude 10° 16:16:37 10° 291° (WNW) 1,811 5.4 -14.3°
Maximum altitude 16:18:59 15° 255° (WSW) 1,502 4.4 -14.8°
Drops below altitude 10° 16:21:21 10° 218° (SW) 1,805 4.3 -15.2°
Sets 16:24:17 0° 196° (SSW) 2,698 4.9 -15.8°
